Simultaneous Nadir Overpasses (SNOs) Predictions

Prediction of SNOs between GOES-15 and NPP Satellite Orbit:

Table of predicted SNOs for the next 14.0 days since TLE Epoch: 8/29/2016
Index Date Time (GOES-15) GOES-15 Lat,Lon NPP Lat,Lon Distance(km) Time Diff (sec)
1 08/30/2016 10:18:35 0.36,-135.26 -0.04,-133.54 196.45 80
2 08/31/2016 22:40:30 -0.36,-135.29 -1.14,-138.85 404.90 80
3 09/01/2016 22:24:25 -0.36,-135.31 -0.14,-134.31 114.40 80
4 09/03/2016 10:46:12 0.35,-135.36 1.30,-139.58 480.81 80
5 09/04/2016 10:24:47 0.36,-135.38 0.29,-135.04 37.86 80
6 09/06/2016 22:27:57 -0.35,-135.41 -0.46,-135.81 46.38 80
7 09/07/2016 22:11:52 -0.35,-135.43 0.60,-131.29 472.22 80
8 09/09/2016 10:33:40 0.34,-135.46 0.56,-136.56 124.31 80
9 09/10/2016 10:12:14
